Tiempo atmosférico en la estación meteorológica de Es Mercadal, Illes Balears (77 m.)



Fecha
DESCASC
Temp. máxima en grados centígrados (hora)
DESCASC
Temp. mínima en grados centígrados (hora)
DESCASC
Temp. media en grados centígrados
DESCASC
Racha de viento máxima en m/sg (hora)
DESCASC
Velocidad máxima media en intervalos de 10 minutos(hora)
DESCASC
Precipitaciones diarias en mm
DESCASC
Precipitaciones de 00:00 a 06:00 en mm
DESCASC
Precipitaciones de 06:00 a 12:00 en mm
DESCASC
Precipitaciones de 12:00 a 18:00 en mm
DESCASC
Precipitaciones de 18:00 a 24:00 en mm
DESCASC
21-02-2019 -- (--) -- (--) -- 4.44 (14:40) 2.78 (14:40) 0 0 0 0 0
20-02-2019 -- (--) -- (--) -- 6.11 (13:40) 4.44 (13:40) 0 0 0 0 0
19-02-2019 -- (--) -- (--) -- 8.61 (14:30) 5.83 (14:30) 0 0 0 0 0
18-02-2019 -- (--) -- (--) -- 8.89 (14:20) 5.83 (14:10) 0 0 0 0 0
17-02-2019 -- (--) -- (--) -- 8.06 (12:50) 5 (10:40) 0 0 0 0 0
16-02-2019 -- (--) -- (--) -- 6.39 (11:20) 4.44 (11:40) 0.4 0.2 0.2 0 0
15-02-2019 -- (--) -- (--) -- 5 (16:00) 3.61 (16:00) 0.2 0.2 0 0 0
14-02-2019 -- (--) -- (--) -- 6.67 (14:10) 3.33 (14:50) 0 0 0 0 0
13-02-2019 -- (--) -- (--) -- 5.83 (01:30) 3.61 (01:10) 0 0 0 0 0
12-02-2019 -- (--) -- (--) -- 16.94 (02:30) 10 (03:00) 0 0 0 0 0
11-02-2019 -- (--) -- (--) -- 15.28 (22:30) 8.89 (23:30) 0 0 0 0 0
10-02-2019 16.1 (14:20) 11.1 (00:00) 13.6 12.5 (11:50) 8.61 (10:40) 0 0 0 0 0
09-02-2019 15.1 (14:10) 11.1 (00:00) 13.1 10.28 (23:20) 6.39 (05:30) 0 0 0 0 0
08-02-2019 14.3 (13:40) 8.5 (00:00) 11.4 10.28 (00:40) 7.22 (15:50) 0 0 0 0 0
07-02-2019 16.5 (14:20) 8.7 (00:00) 12.6 8.89 (23:59) 5 (23:59) 0 0 0 0 0
06-02-2019 15 (12:10) 8.8 (00:00) 11.9 6.67 (13:00) 5 (13:30) 0 0 0 0 0
05-02-2019 13.7 (13:30) 7.7 (00:00) 10.7 9.72 (13:50) 5.83 (13:40) 0 0 0 0 0
04-02-2019 9.8 (14:40) 7.1 (00:00) 8.5 22.22 (01:30) 14.44 (01:50) 0 0 0 0 0
03-02-2019 10.7 (14:10) 7.2 (00:00) 8.9 22.78 (23:40) 14.17 (23:40) 1.4 0 0 0 1.4
02-02-2019 12.7 (00:30) 6.5 (00:00) 9.6 13.61 (13:00) 8.89 (13:00) 9 0 7.8 0.8 0.4
01-02-2019 14.2 (16:10) 12 (00:00) 13.1 18.61 (10:40) 11.94 (15:00) 2.8 0 1.4 1.4 0
31-01-2019 16.9 (14:50) 9.7 (00:00) 13.3 13.61 (10:00) 8.89 (10:50) 0 0 0 0 0
30-01-2019 12.4 (15:10) 8.4 (00:00) 10.4 13.33 (03:20) 7.78 (03:20) 0 0 0 0 0
29-01-2019 10.2 (12:10) 8.2 (00:00) 9.2 16.11 (02:20) 9.72 (01:20) 4.4 0 0.2 4 0.2
28-01-2019 12.8 (15:10) 7.1 (00:00) 10 20.56 (13:30) 12.22 (14:40) 6 6 0 0 0
27-01-2019 14.8 (13:20) 8.5 (00:00) 11.7 13.89 (15:50) 9.17 (15:50) 2.2 0 0 0 2.2
26-01-2019 15.2 (15:40) 8.9 (00:00) 12 18.33 (02:10) 12.22 (02:30) 0 0 0 0 0
25-01-2019 10.9 (16:10) 7.2 (00:00) 9 23.33 (09:00) 16.39 (09:30) 0 0 0 0 0
24-01-2019 7.6 (20:40) 4.9 (00:00) 6.3 26.39 (07:10) 16.39 (05:40) 0 0 0 0 0

Gráficas

Temp. máximas Temp. mínimas Temp. medias Precipitaciones Rachas de viento máximas Velocidades máximas media en intervalos de 10 minutos

Datos horarios

Fecha y hora oficial Temperatura (ºC) Velocidad del viento (km/h) Dirección del viento Racha (km/h) Dirección de racha Precipitación (mm) Presión (hPa) Tendencia (hPa) Humedad (%)
2019-02-22 23:00:00 -- 13 Norte 30 Noroeste 0 -- -- 77
2019-02-22 22:00:00 -- 11 Norte 17 Noroeste 0 -- -- 83
2019-02-22 21:00:00 -- 3 Norte 21 Noroeste 0 -- -- 77
2019-02-22 20:00:00 -- 9 Noroeste 21 Oeste 0 -- -- 75
2019-02-22 19:00:00 -- 12 Noroeste 26 Noroeste 0 -- -- 81
2019-02-22 18:00:00 -- 16 Noroeste 33 Oeste 0 -- -- 76
2019-02-22 17:00:00 -- 16 Noroeste 34 Noroeste 0 -- -- 72
2019-02-22 16:00:00 -- 21 Oeste 35 Noroeste 0 -- -- 69
2019-02-22 15:00:00 -- 21 Oeste 31 Oeste 0 -- -- 65
2019-02-22 14:00:00 -- 19 Oeste 35 Oeste 0 -- -- 62
2019-02-22 13:00:00 -- 25 Oeste 39 Oeste 0 -- -- 71
2019-02-22 12:00:00 -- 20 Oeste 35 Noroeste 0 -- -- 78
2019-02-22 11:00:00 -- 20 Oeste 32 Noroeste 0 -- -- 84
2019-02-22 10:00:00 -- 14 Oeste 27 Oeste 0 -- -- 88
2019-02-22 09:00:00 -- 7 Oeste 27 Oeste 0 -- -- 90
2019-02-22 08:00:00 -- 5 Oeste 16 Oeste 0 -- -- 92
2019-02-22 07:00:00 -- 6 Oeste 13 Oeste 0 -- -- 92
2019-02-22 06:00:00 -- 6 Oeste 10 Oeste 0 -- -- 91
2019-02-22 05:00:00 -- 5 Oeste 14 Oeste 0 -- -- 91
2019-02-22 04:00:00 -- 6 Oeste 10 Sudoeste 0 -- -- 92
2019-02-22 03:00:00 -- 6 Sudoeste 10 Oeste 0 -- -- 92
2019-02-22 02:00:00 -- 5 Sudoeste 9 Sudoeste 0 -- -- 91
2019-02-22 01:00:00 -- 9 Sudoeste 10 Sudoeste 0 -- -- 90
2019-02-22 00:00:00 -- 8 Sudoeste 9 Sudoeste 0 -- -- 91
2019-02-21 23:00:00 -- 5 Sudoeste 8 Sudoeste 0 -- -- 89
2019-02-21 22:00:00 -- 4 Sudoeste 8 Sudoeste 0 -- -- 88
2019-02-21 21:00:00 -- 4 Sudoeste 9 Sur 0 -- -- 88
2019-02-21 20:00:00 -- 5 Sudoeste 8 Sur 0 -- -- 85
2019-02-21 19:00:00 -- 4 Sur 5 Sur 0 -- -- 80
2019-02-21 18:00:00 -- 2 Este 8 Este 0 -- -- 73
2019-02-21 17:00:00 -- 5 Nordeste 11 Norte 0 -- -- 71
2019-02-21 16:00:00 -- 5 Norte 8 Norte 0 -- -- 67
2019-02-21 15:00:00 -- 3 Norte 16 Nordeste 0 -- -- 63
2019-02-21 14:00:00 -- 7 Nordeste 15 Norte 0 -- -- 62
2019-02-21 13:00:00 -- 4 Noroeste 14 Este 0 -- -- 59
2019-02-21 12:00:00 -- 9 Nordeste 15 Norte 0 -- -- 60
2019-02-21 11:00:00 -- 5 Nordeste 14 Nordeste 0 -- -- 61
2019-02-21 10:00:00 -- 4 Sudeste 6 Sudeste 0 -- -- 68
2019-02-21 09:00:00 -- 4 Sur 5 Sur 0 -- -- 79
2019-02-21 08:00:00 -- 4 Sudeste 5 Sudeste 0 -- -- 85
2019-02-21 07:00:00 -- 0 Calma 2 Sudoeste 0 -- -- 88
2019-02-21 06:00:00 -- 0 Calma 0 Calma 0 -- -- 89
2019-02-21 05:00:00 -- 0 Calma -- -- 0 -- -- 89
2019-02-21 04:00:00 -- -- -- -- -- 0 -- -- 89
2019-02-21 03:00:00 -- 0 Calma 3 Sudoeste 0 -- -- 90
2019-02-21 02:00:00 -- 2 Sudoeste 4 Sudoeste 0 -- -- 89
2019-02-21 01:00:00 -- 3 Sudoeste 5 Sur 0 -- -- 91
2019-02-21 00:00:00 -- 2 Sudoeste 4 Sudoeste 0 -- -- 89
2019-02-20 23:00:00 -- 2 Sudoeste 4 Sur 0 -- -- 88
2019-02-20 22:00:00 -- 3 Sudoeste 4 Sudoeste 0 -- -- 87
2019-02-20 21:00:00 -- 3 Oeste 4 Oeste 0 -- -- 87
2019-02-20 20:00:00 -- 0 Calma 4 Este 0 -- -- 84
2019-02-20 19:00:00 -- 0 Calma 5 Nordeste 0 -- -- 77
2019-02-20 18:00:00 -- 3 Nordeste 10 Este 0 -- -- 73
2019-02-20 17:00:00 -- 9 Nordeste 14 Nordeste 0 -- -- 69
2019-02-20 16:00:00 -- 9 Este 19 Nordeste 0 -- -- 68
2019-02-20 15:00:00 -- 12 Nordeste 19 Nordeste 0 -- -- 67
2019-02-20 14:00:00 -- 9 Nordeste 22 Este 0 -- -- 63
2019-02-20 13:00:00 -- 9 Nordeste 14 Nordeste 0 -- -- 64
2019-02-20 12:00:00 -- 11 Nordeste 15 Nordeste 0 -- -- 68
2019-02-20 11:00:00 -- 6 Nordeste 17 Nordeste 0 -- -- 64
2019-02-20 10:00:00 -- 2 Nordeste 5 Este 0 -- -- 73
2019-02-20 09:00:00 -- 2 Oeste 4 Oeste 0 -- -- 86
2019-02-20 08:00:00 -- 2 Noroeste 5 Oeste 0 -- -- 91
2019-02-20 07:00:00 -- 0 Calma 3 Oeste 0 -- -- 90
2019-02-20 06:00:00 -- 0 Calma 5 Oeste 0 -- -- 88
2019-02-20 05:00:00 -- 3 Oeste 4 Oeste 0 -- -- 86
2019-02-20 04:00:00 -- 2 Oeste 5 Oeste 0 -- -- 88
2019-02-20 03:00:00 -- 3 Sudoeste 4 Oeste 0 -- -- 87
2019-02-20 02:00:00 -- 2 Oeste 4 Sudoeste 0 -- -- 86
2019-02-20 01:00:00 -- 3 Oeste 5 Oeste 0 -- -- 88
2019-02-20 00:00:00 -- 0 Calma 5 Oeste 0 -- -- 91
2019-02-19 23:00:00 -- 3 Oeste 5 Oeste 0 -- -- 91
2019-02-19 22:00:00 -- 2 Oeste 3 Oeste 0 -- -- 89
2019-02-19 21:00:00 -- 2 Oeste 4 Oeste 0 -- -- 87
2019-02-19 20:00:00 -- 2 Oeste 4 Oeste 0 -- -- 86
2019-02-19 19:00:00 -- 0 Calma 9 Nordeste 0 -- -- 81
2019-02-19 18:00:00 -- 6 Nordeste 22 Este 0 -- -- 75
2019-02-19 17:00:00 -- 13 Nordeste 25 Nordeste 0 -- -- 69
2019-02-19 16:00:00 -- 13 Nordeste 25 Nordeste 0 -- -- 67
2019-02-19 15:00:00 -- 12 Nordeste 31 Este 0 -- -- 61
2019-02-19 14:00:00 -- 17 Nordeste 27 Nordeste 0 -- -- 67
2019-02-19 13:00:00 -- 12 Este 22 Este 0 -- -- 59
2019-02-19 12:00:00 -- 13 Este 26 Este 0 -- -- 67
2019-02-19 11:00:00 -- 15 Este 27 Este 0 -- -- 69
2019-02-19 10:00:00 -- 7 Este 12 Este 0 -- -- 78
2019-02-19 09:00:00 -- 6 Este 9 Este 0 -- -- 79
2019-02-19 08:00:00 -- 0 Calma 4 Noroeste 0 -- -- 91
2019-02-19 07:00:00 -- 3 Noroeste 6 Oeste 0 -- -- 91
2019-02-19 06:00:00 -- 0 Calma 4 Sur 0 -- -- 89
2019-02-19 05:00:00 -- 2 Oeste 8 Sudeste 0 -- -- 91
2019-02-19 04:00:00 -- 5 Sudeste 11 Sudeste 0 -- -- 83
2019-02-19 03:00:00 -- 7 Sudeste 12 Sudeste 0 -- -- 85
2019-02-19 02:00:00 -- 5 Sudeste 8 Sudeste 0 -- -- 87
2019-02-19 01:00:00 -- 3 Sur 13 Sudeste 0 -- -- 87
2019-02-19 00:00:00 -- 5 Sudeste 10 Este 0 -- -- 88
2019-02-18 23:00:00 -- 3 Este 8 Este 0 -- -- 86
2019-02-18 22:00:00 -- 2 Sudeste 6 Sudeste 0 -- -- 88
2019-02-18 21:00:00 -- 2 Este 5 Sudeste 0 -- -- 90
2019-02-18 20:00:00 -- 2 Oeste 10 Sudeste 0 -- -- 87
2019-02-18 19:00:00 -- 7 Sudeste 18 Este 0 -- -- 85
2019-02-18 18:00:00 -- 7 Sudeste 23 Este 0 -- -- 78
2019-02-18 17:00:00 -- 12 Sudeste 21 Este 0 -- -- 74
2019-02-18 16:00:00 -- 12 Este 28 Este 0 -- -- 71
2019-02-18 15:00:00 -- 15 Este 32 Este 0 -- -- 71
2019-02-18 14:00:00 -- 15 Sudeste 27 Sudeste 0 -- -- 70
2019-02-18 13:00:00 -- 13 Sudeste 24 Sudeste 0 -- -- 68
2019-02-18 12:00:00 -- 12 Sudeste 25 Sudeste 0 -- -- 71
2019-02-18 11:00:00 -- 13 Sudeste 28 Sudeste 0 -- -- 74
2019-02-18 10:00:00 -- 7 Sudeste 17 Sudeste 0 -- -- 82
2019-02-18 09:00:00 -- 4 Sudeste 10 Sudeste 0 -- -- 90
2019-02-18 08:00:00 -- 5 Sudeste 9 Sudeste 0 -- -- 92
2019-02-18 07:00:00 -- 3 Sur 7 Sur 0 -- -- 94
2019-02-18 06:00:00 -- 4 Sur 10 Sur 0 -- -- 93
2019-02-18 05:00:00 -- 6 Sudeste 9 Sudeste 0 -- -- 93
2019-02-18 04:00:00 -- 4 Sur 9 Sudeste 0 -- -- 94
2019-02-18 03:00:00 -- 6 Sur 9 Sur 0 -- -- 94
2019-02-18 02:00:00 -- 5 Sur 10 Sur 0 -- -- 94
2019-02-18 01:00:00 -- 6 Sur 14 Sudeste 0 -- -- 94
2019-02-18 00:00:00 -- 10 Sur 22 Sur 0 -- -- 92
2019-02-17 23:00:00 -- 12 Sur 19 Sur 0 -- -- 92
2019-02-17 22:00:00 -- 8 Sudeste 14 Sur 0 -- -- 91
2019-02-17 21:00:00 -- 5 Sur 13 Sudeste 0 -- -- 89
2019-02-17 20:00:00 -- 6 Sudeste 18 Sudeste 0 -- -- 87
2019-02-17 19:00:00 -- 3 Sudeste 15 Sur 0 -- -- 84
2019-02-17 18:00:00 -- 11 Sudeste 24 Sudeste 0 -- -- 80
2019-02-17 17:00:00 -- 13 Sudeste 23 Sudeste 0 -- -- 73
2019-02-17 16:00:00 -- 12 Sudeste 27 Sudeste 0 -- -- 70
2019-02-17 15:00:00 -- 14 Sudeste 25 Sudeste 0 -- -- 75
2019-02-17 14:00:00 -- 14 Sudeste 25 Sudeste 0 -- -- 71
2019-02-17 13:00:00 -- 12 Sudeste 29 Sudeste 0 -- -- 71
2019-02-17 12:00:00 -- 14 Sudeste 28 Sudeste 0 -- -- 70
2019-02-17 11:00:00 15.4 13 Sudeste 27 Sudeste 0 -- -- 74
2019-02-17 10:00:00 15.1 8 Sudeste 14 Sudeste 0 -- -- 76
2019-02-17 09:00:00 12.5 8 Sudeste 12 Sudeste 0 -- -- 84
2019-02-17 08:00:00 10.3 5 Sur 9 Sur 0 -- -- 91
2019-02-17 07:00:00 10.1 6 Sur 11 Sudeste 0 -- -- 95
2019-02-17 06:00:00 10.1 9 Sudeste 16 Sudeste 0 -- -- 96
2019-02-17 05:00:00 10.7 7 Sur 14 Sudeste 0 -- -- 96
2019-02-17 04:00:00 11 12 Sudeste 17 Sudeste 0 -- -- 96
2019-02-17 03:00:00 10.8 8 Sur 12 Sur 0 -- -- 97
2019-02-17 02:00:00 10.6 5 Sur 11 Sur 0 -- -- 97
2019-02-17 01:00:00 10.3 5 Sudoeste 8 Sudoeste 0 -- -- 96
2019-02-17 00:00:00 10 3 Sudoeste 8 Sur 0 -- -- 95
2019-02-16 23:00:00 10.1 5 Sur 9 Sur 0 -- -- 96
2019-02-16 22:00:00 10.4 3 Sudoeste 10 Nordeste 0 -- -- 93
2019-02-16 21:00:00 11 8 Este 13 Este 0 -- -- 93
2019-02-16 20:00:00 10.3 0 Calma 10 Este 0 -- -- 94
2019-02-16 19:00:00 10.7 2 Este 9 Nordeste 0 -- -- 91
2019-02-16 18:00:00 12.7 6 Nordeste 12 Nordeste 0 -- -- 84
2019-02-16 17:00:00 15.1 8 Nordeste 14 Sudeste 0 -- -- 75
2019-02-16 16:00:00 16.2 11 Este 16 Este 0 -- -- 71
2019-02-16 15:00:00 14 10 Este 17 Sudeste 0 -- -- 69
2019-02-16 14:00:00 14.5 11 Este 19 Este 0 -- -- 70
2019-02-16 13:00:00 14.1 10 Este 23 Nordeste 0 -- -- 78
2019-02-16 12:00:00 12.4 12 Nordeste 23 Nordeste 0 -- -- 80
2019-02-16 11:00:00 9.8 13 Nordeste 21 Nordeste 0 -- -- 82
2019-02-16 10:00:00 8.3 10 Nordeste 16 Nordeste 0 -- -- 99
2019-02-16 09:00:00 6.2 4 Norte 8 Nordeste 0.2 -- -- 100
2019-02-16 08:00:00 5.2 3 Norte 7 Nordeste 0 -- -- 100
2019-02-16 07:00:00 6.8 5 Norte 8 Norte 0 -- -- 100
2019-02-16 06:00:00 6.6 5 Norte 6 Norte 0 -- -- 100
2019-02-16 05:00:00 6.3 3 Norte 4 Nordeste 0 -- -- 100
2019-02-16 04:00:00 6.5 2 Noroeste 4 Noroeste 0 -- -- 100
2019-02-16 03:00:00 7.4 0 Calma 3 Noroeste 0.2 -- -- 100
2019-02-16 02:00:00 7.2 3 Noroeste 5 Noroeste 0 -- -- 100
2019-02-16 01:00:00 7 3 Noroeste 4 Noroeste 0 -- -- 99
2019-02-16 00:00:00 7.1 0 Calma 6 Oeste 0 -- -- 98
2019-02-15 23:00:00 7.3 4 Oeste 5 Oeste 0 -- -- 98
2019-02-15 22:00:00 8 2 Sudoeste 4 Oeste 0 -- -- 97
2019-02-15 21:00:00 7.6 2 Oeste 4 Oeste 0 -- -- 95
2019-02-15 20:00:00 8.8 0 Calma 9 Nordeste 0 -- -- 95
2019-02-15 19:00:00 9.9 3 Nordeste 8 Nordeste 0 -- -- 90
2019-02-15 18:00:00 11.9 6 Nordeste 14 Nordeste 0 -- -- 84
2019-02-15 17:00:00 13.2 11 Nordeste 17 Norte 0 -- -- 79
2019-02-15 16:00:00 14.3 13 Nordeste 18 Nordeste 0 -- -- 75
2019-02-15 15:00:00 16.2 8 Sudoeste 15 Sur 0 -- -- 70
2019-02-15 14:00:00 16.2 7 Sudeste 14 Sudeste 0 -- -- 68
2019-02-15 13:00:00 15 5 Sudeste 13 Este 0 -- -- 68
2019-02-15 12:00:00 13.9 8 Sudeste 15 Sudeste 0 -- -- 72
2019-02-15 11:00:00 12.9 6 Sudeste 14 Este 0 -- -- 85
2019-02-15 10:00:00 10.4 2 Nordeste 4 Nordeste 0 -- -- 99
2019-02-15 09:00:00 8.1 4 Oeste 5 Oeste 0 -- -- 100
2019-02-15 08:00:00 7.2 0 Calma 8 Sudoeste 0 -- -- 100
2019-02-15 07:00:00 6.8 2 Sudoeste 4 Oeste 0 -- -- 100
2019-02-15 06:00:00 6.6 0 Calma 4 Sudoeste 0 -- -- 100
2019-02-15 05:00:00 6.6 3 Sudoeste 5 Oeste 0.2 -- -- 99
2019-02-15 04:00:00 7.2 0 Calma 5 Oeste 0 -- -- 98
2019-02-15 03:00:00 6.6 3 Sur 6 Sur 0 -- -- 99
2019-02-15 02:00:00 6.8 3 Sudoeste 4 Sudoeste 0 -- -- 97
2019-02-15 01:00:00 6.7 2 Sur 6 Sur 0 -- -- 95
2019-02-15 00:00:00 7.7 4 Sur 6 Sur 0 -- -- 96
2019-02-14 23:00:00 8.3 3 Sudeste 6 Sudeste 0 -- -- 94
2019-02-14 22:00:00 8.1 0 Calma 9 Sudeste 0 -- -- 93
2019-02-14 21:00:00 7.7 4 Sudoeste 8 Sudeste 0 -- -- 95
2019-02-14 20:00:00 8.4 2 Sur 9 Sudeste 0 -- -- 89
2019-02-14 19:00:00 9.9 4 Este 11 Sudeste 0 -- -- 85
2019-02-14 18:00:00 11.8 8 Sudeste 15 Sudeste 0 -- -- 76
2019-02-14 17:00:00 13.1 10 Sudeste 19 Sudeste 0 -- -- 70
2019-02-14 16:00:00 14 9 Sudeste 20 Sudeste 0 -- -- 67
2019-02-14 15:00:00 14.9 10 Este 24 Nordeste 0 -- -- 65
2019-02-14 14:00:00 14.4 10 Nordeste 17 Nordeste 0 -- -- 68
2019-02-14 13:00:00 14.3 6 Nordeste 14 Nordeste 0 -- -- 68
2019-02-14 12:00:00 13 8 Norte 18 Nordeste 0 -- -- 73
2019-02-14 11:00:00 12.1 12 Nordeste 17 Nordeste 0 -- -- 77
2019-02-14 10:00:00 10.8 10 Nordeste 19 Este 0 -- -- 87
2019-02-14 09:00:00 8.6 3 Nordeste 7 Nordeste 0 -- -- 93
2019-02-14 08:00:00 6.8 0 Calma 3 Oeste 0 -- -- 97
2019-02-14 07:00:00 6.2 0 Calma 4 Oeste 0 -- -- 97
2019-02-14 06:00:00 6 3 Oeste 5 Oeste 0 -- -- 99
2019-02-14 05:00:00 6.6 0 Calma 3 Oeste 0 -- -- 98
2019-02-14 04:00:00 7.2 0 Calma 4 Oeste 0 -- -- 96
2019-02-14 03:00:00 7.2 2 Sur 4 Sudoeste 0 -- -- 95
2019-02-14 02:00:00 7.2 0 Calma 4 Sudoeste 0 -- -- 94
2019-02-14 01:00:00 7.5 0 Calma 4 Sudeste 0 -- -- 94
2019-02-14 00:00:00 7.7 3 Sudeste 5 Sur 0 -- -- 88
2019-02-13 23:00:00 7.1 2 Sur 4 Sur 0 -- -- 87
2019-02-13 22:00:00 7.7 3 Sudoeste 5 Sur 0 -- -- 87
2019-02-13 21:00:00 7.5 4 Sur 6 Sur 0 -- -- 92
2019-02-13 20:00:00 8.4 0 Calma 3 Sudoeste 0 -- -- 90
2019-02-13 19:00:00 10.5 0 Calma 6 Nordeste 0 -- -- 84
2019-02-13 18:00:00 12.3 6 Nordeste 12 Nordeste 0 -- -- 77
2019-02-13 17:00:00 13.4 5 Norte 10 Norte 0 -- -- 72
2019-02-13 16:00:00 13.7 8 Norte 16 Nordeste 0 -- -- 70
2019-02-13 15:00:00 13.4 12 Norte 18 Norte 0 -- -- 71
2019-02-13 14:00:00 13.7 7 Norte 16 Norte 0 -- -- 71
2019-02-13 13:00:00 13.8 7 Norte 14 Norte 0 -- -- 67
2019-02-13 12:00:00 14 6 Norte 13 Norte 0 -- -- 63
2019-02-13 11:00:00 13.4 6 Norte 13 Norte 0 -- -- 67
2019-02-13 10:00:00 12.6 4 Norte 9 Nordeste 0 -- -- 76
2019-02-13 09:00:00 10.5 4 Sudoeste 12 Sudoeste 0 -- -- 82
2019-02-13 08:00:00 6.7 7 Sudoeste 10 Sudoeste 0 -- -- 91
2019-02-13 07:00:00 6 5 Sudoeste 8 Sudoeste 0 -- -- 84
2019-02-13 06:00:00 8 4 Sur 10 Sudoeste 0 -- -- 83
2019-02-13 05:00:00 6.8 9 Sudoeste 12 Sudoeste 0 -- -- 82
2019-02-13 04:00:00 8.4 2 Sur 10 Sudeste 0 -- -- 73
2019-02-13 03:00:00 8.5 4 Sudeste 15 Sudoeste 0 -- -- 69
2019-02-13 02:00:00 8.9 9 Sudoeste 21 Sudoeste 0 -- -- 72
2019-02-13 01:00:00 9.1 12 Sudoeste 19 Sudoeste 0 -- -- 76
2019-02-13 00:00:00 8.7 6 Sudoeste 14 Sudoeste 0 -- -- 75
2019-02-12 23:00:00 8.1 9 Sudoeste 13 Sudoeste 0 -- -- 78
2019-02-12 22:00:00 8 7 Sudoeste 10 Sudoeste 0 -- -- 74
2019-02-12 21:00:00 7.9 2 Sudoeste 9 Sudoeste 0 -- -- 73
2019-02-12 20:00:00 7.7 5 Oeste 10 Norte 0 -- -- 75
2019-02-12 19:00:00 8.7 7 Norte 15 Noroeste 0 -- -- 76
2019-02-12 18:00:00 10.1 11 Norte 30 Norte 0 -- -- 64
2019-02-12 17:00:00 11.3 17 Norte 30 Norte 0 -- -- 58
2019-02-12 16:00:00 11.5 21 Norte 39 Norte 0 -- -- 60
2019-02-12 15:00:00 11.5 25 Norte 42 Norte 0 -- -- 61
2019-02-12 14:00:00 12 27 Norte 42 Norte 0 -- -- 59
2019-02-12 13:00:00 11.9 27 Norte 48 Norte 0 -- -- 61
2019-02-12 12:00:00 11.6 27 Norte 43 Norte 0 -- -- 60
2019-02-12 11:00:00 11.1 29 Norte 49 Norte 0 -- -- 61
2019-02-12 10:00:00 10.9 27 Norte 49 Norte 0 -- -- 62
2019-02-12 09:00:00 10.3 31 Norte 53 Norte 0 -- -- 63
2019-02-12 08:00:00 9.9 34 Norte 53 Norte 0 -- -- 64
2019-02-12 07:00:00 10 33 Norte 58 Norte 0 -- -- 64
2019-02-12 06:00:00 10.2 28 Norte 55 Norte 0 -- -- 66
2019-02-12 05:00:00 10.6 35 Norte 60 Norte 0 -- -- 58
2019-02-12 04:00:00 10.6 31 Norte 57 Norte 0 -- -- 63
2019-02-12 03:00:00 10.9 36 Norte 61 Norte 0 -- -- 59
2019-02-12 02:00:00 10.7 31 Norte 57 Norte 0 -- -- 67
2019-02-12 01:00:00 10.7 23 Norte 50 Norte 0 -- -- 63
2019-02-12 00:00:00 11.3 29 Norte 49 Norte 0 -- -- 59
2019-02-11 23:00:00 11.4 32 Norte 55 Norte 0 -- -- 58
2019-02-11 22:00:00 11 31 Norte 49 Norte 0 -- -- 64
2019-02-11 21:00:00 11.3 31 Norte 47 Norte 0 -- -- 63
2019-02-11 20:00:00 11 21 Norte 45 Norte 0 -- -- 70
2019-02-11 19:00:00 11.2 22 Norte 41 Norte 0 -- -- 72
2019-02-11 18:00:00 11.5 23 Norte 39 Norte 0 -- -- 70
2019-02-11 17:00:00 11.7 24 Norte 42 Norte 0 -- -- 71
2019-02-11 16:00:00 12.1 25 Norte 40 Norte 0 -- -- 69
2019-02-11 15:00:00 12.3 23 Norte 43 Norte 0 -- -- 72
2019-02-11 14:00:00 12.1 20 Norte 41 Norte 0 -- -- 68
2019-02-11 13:00:00 12.3 27 Norte 39 Norte 0 -- -- 63
2019-02-11 12:00:00 12.6 27 Norte 40 Norte 0 -- -- 60
2019-02-11 11:00:00 11.8 24 Nordeste 37 Norte 0 -- -- 66
2019-02-11 10:00:00 11.9 23 Norte 39 Nordeste 0 -- -- 66
2019-02-11 09:00:00 11.4 22 Nordeste 33 Norte 0 -- -- 68
2019-02-11 08:00:00 11.4 21 Nordeste 39 Nordeste 0 -- -- 65
2019-02-11 07:00:00 11.1 19 Nordeste 31 Norte 0 -- -- 70
2019-02-11 06:00:00 11.1 20 Nordeste 38 Nordeste 0 -- -- 68
2019-02-11 05:00:00 11 17 Nordeste 27 Nordeste 0 -- -- 69
2019-02-11 04:00:00 11.2 20 Nordeste 33 Nordeste 0 -- -- 72
2019-02-11 03:00:00 11 10 Nordeste 17 Nordeste 0 -- -- 81
2019-02-11 02:00:00 10.9 5 Nordeste 14 Nordeste 0 -- -- 86
2019-02-11 01:00:00 11.7 9 Nordeste 18 Nordeste 0 -- -- 84
2019-02-11 00:00:00 12.6 5 Nordeste 18 Norte 0 -- -- 85
2019-02-10 23:00:00 13.1 12 Norte 29 Nordeste 0 -- -- 78
2019-02-10 22:00:00 12.5 13 Oeste 28 Oeste 0 -- -- 74
2019-02-10 21:00:00 13.6 18 Oeste 36 Oeste 0 -- -- 67
2019-02-10 20:00:00 13.1 13 Oeste 27 Sudoeste 0 -- -- 67
2019-02-10 19:00:00 13.1 18 Sudoeste 28 Sudoeste 0 -- -- 73
2019-02-10 18:00:00 13.9 15 Sudoeste 27 Oeste 0 -- -- 62
2019-02-10 17:00:00 13.8 21 Sudoeste 36 Sudoeste 0 -- -- 67
2019-02-10 16:00:00 14.6 17 Oeste 42 Oeste 0 -- -- 71
2019-02-10 15:00:00 15.2 22 Oeste 38 Oeste 0 -- -- 74
2019-02-10 14:00:00 15.7 21 Sudoeste 32 Sudoeste 0 -- -- 78
2019-02-10 13:00:00 14.3 24 Sudoeste 38 Sudoeste 0 -- -- 84
2019-02-10 12:00:00 13.5 27 Sudoeste 45 Sudoeste 0 -- -- 87
2019-02-10 11:00:00 12.5 30 Sudoeste 43 Sudoeste 0 -- -- 89
2019-02-10 10:00:00 12.1 26 Sudoeste 42 Sudoeste 0 -- -- 90
2019-02-10 09:00:00 11.8 26 Sudoeste 44 Sudoeste 0 -- -- 92
2019-02-10 08:00:00 11.3 27 Sudoeste 41 Sudoeste 0 -- -- 93
2019-02-10 07:00:00 11.3 24 Sudoeste 40 Sudoeste 0 -- -- 93
2019-02-10 06:00:00 11.4 24 Sudoeste 37 Sudoeste 0 -- -- 94
2019-02-10 05:00:00 11.2 21 Sudoeste 30 Sudoeste 0 -- -- 94
2019-02-10 04:00:00 11.2 19 Sudoeste 29 Sudoeste 0 -- -- 95
2019-02-10 03:00:00 11.3 17 Sudoeste 31 Sudoeste 0 -- -- 95
2019-02-10 02:00:00 11.5 18 Sudoeste 31 Sudoeste 0 -- -- 94
2019-02-10 01:00:00 11.8 18 Sudoeste 32 Sudoeste 0 -- -- 94
2019-02-10 00:00:00 11.9 17 Sudoeste 37 Sur 0 -- -- 96
2019-02-09 23:00:00 12.2 18 Sudoeste 31 Sur 0 -- -- 96
2019-02-09 22:00:00 12.1 15 Sudoeste 23 Sur 0 -- -- 96
2019-02-09 21:00:00 12 12 Sudoeste 24 Sur 0 -- -- 97
2019-02-09 20:00:00 11.2 8 Sudoeste 15 Sur 0 -- -- 96
2019-02-09 19:00:00 11.2 8 Sur 13 Sudoeste 0 -- -- 94
2019-02-09 18:00:00 12.3 7 Sudoeste 10 Sur 0 -- -- 88
2019-02-09 17:00:00 13.6 9 Sur 14 Sur 0 -- -- 82
2019-02-09 16:00:00 14.8 10 Sur 18 Sur 0 -- -- 77
2019-02-09 15:00:00 15.1 10 Sur 19 Sur 0 -- -- 79
2019-02-09 14:00:00 14.9 10 Sur 17 Sur 0 -- -- 80
2019-02-09 13:00:00 14.3 10 Sur 22 Sur 0 -- -- 81
2019-02-09 12:00:00 13.1 10 Sudoeste 18 Sudoeste 0 -- -- 85
2019-02-09 11:00:00 12.8 12 Sudoeste 17 Oeste 0 -- -- 86
2019-02-09 10:00:00 12.6 10 Sudoeste 23 Sudoeste 0 -- -- 88
2019-02-09 09:00:00 11.8 11 Sudoeste 19 Sudoeste 0 -- -- 91
2019-02-09 08:00:00 11.1 17 Sudoeste 26 Sudoeste 0 -- -- 92
2019-02-09 07:00:00 11.4 16 Sudoeste 28 Sudoeste 0 -- -- 92
2019-02-09 06:00:00 11.2 12 Sudoeste 31 Sudoeste 0 -- -- 93
2019-02-09 05:00:00 11.3 16 Sudoeste 28 Sudoeste 0 -- -- 94
2019-02-09 04:00:00 11.2 21 Sudoeste 27 Sudoeste 0 -- -- 95
2019-02-09 03:00:00 11.2 19 Sudoeste 25 Sudoeste 0 -- -- 95
2019-02-09 02:00:00 11.1 18 Sudoeste 23 Sudoeste 0 -- -- 94
2019-02-09 01:00:00 11.2 11 Sudoeste 27 Sudoeste 0 -- -- 95
2019-02-09 00:00:00 11.4 16 Sudoeste 28 Sudoeste 0 -- -- 95
2019-02-08 23:00:00 11.4 13 Sudoeste 22 Sudoeste 0 -- -- 96
2019-02-08 22:00:00 11 13 Sudoeste 19 Sudoeste 0 -- -- 96
2019-02-08 21:00:00 11 14 Sur 20 Sudoeste 0 -- -- 96
2019-02-08 20:00:00 11.1 14 Sudoeste 24 Sur 0 -- -- 95
2019-02-08 19:00:00 11.3 15 Sudoeste 25 Sur 0 -- -- 92
2019-02-08 18:00:00 11.9 18 Sudoeste 31 Sudoeste 0 -- -- 88
2019-02-08 17:00:00 12.7 16 Sudoeste 34 Sudoeste 0 -- -- 82
2019-02-08 16:00:00 13.4 23 Sudoeste 35 Sudoeste 0 -- -- 78
2019-02-08 15:00:00 13.9 18 Sudoeste 26 Sudoeste 0 -- -- 76
2019-02-08 14:00:00 14.1 15 Sudoeste 28 Sudoeste 0 -- -- 76
2019-02-08 13:00:00 14 15 Sudoeste 24 Sudoeste 0 -- -- 74
2019-02-08 12:00:00 14 13 Sudoeste 20 Sudoeste 0 -- -- 73
2019-02-08 11:00:00 13.6 8 Sudoeste 13 Sudoeste 0 -- -- 75
2019-02-08 10:00:00 11.8 3 Sudoeste 5 Sudoeste 0 -- -- 84
2019-02-08 09:00:00 9.3 2 Sur 4 Norte 0 -- -- 89
2019-02-08 08:00:00 8.7 0 Calma 9 Norte 0 -- -- 88
2019-02-08 07:00:00 9.2 6 Norte 14 Norte 0 -- -- 84
2019-02-08 06:00:00 9.9 9 Norte 17 Norte 0 -- -- 83
2019-02-08 05:00:00 10.1 12 Norte 21 Norte 0 -- -- 82
2019-02-08 04:00:00 10.7 13 Norte 25 Norte 0 -- -- 80
2019-02-08 03:00:00 11.1 17 Norte 24 Nordeste 0 -- -- 81
2019-02-08 02:00:00 11.1 19 Norte 30 Norte 0 -- -- 78
2019-02-08 01:00:00 11.4 23 Norte 37 Norte 0 -- -- 74
2019-02-08 00:00:00 10.9 18 Nordeste 32 Nordeste 0 -- -- 88
2019-02-07 23:00:00 10.3 10 Norte 14 Norte 0 -- -- 95
2019-02-07 22:00:00 10.1 4 Norte 13 Norte 0 -- -- 97
2019-02-07 21:00:00 10.7 9 Norte 15 Norte 0 -- -- 95
2019-02-07 20:00:00 11.1 9 Nordeste 21 Norte 0 -- -- 92
2019-02-07 19:00:00 11.7 15 Nordeste 22 Nordeste 0 -- -- 91
2019-02-07 18:00:00 11.7 10 Norte 22 Norte 0 -- -- 92
2019-02-07 17:00:00 12.7 15 Norte 21 Norte 0 -- -- 88
2019-02-07 16:00:00 13 12 Norte 23 Norte 0 -- -- 87
2019-02-07 15:00:00 14.3 11 Norte 19 Norte 0 -- -- 80
2019-02-07 14:00:00 16.1 6 Oeste 15 Oeste 0 -- -- 74
2019-02-07 13:00:00 14.4 10 Sur 19 Sur 0 -- -- 74
2019-02-07 12:00:00 13 9 Sudoeste 19 Sudoeste 0 -- -- 90
2019-02-07 11:00:00 12.2 15 Sudoeste 22 Sudoeste 0 -- -- 93
2019-02-07 10:00:00 11.6 12 Sudoeste 17 Sudoeste 0 -- -- 100
2019-02-07 09:00:00 10.6 12 Sudoeste 18 Sudoeste 0 -- -- 100
2019-02-07 08:00:00 9.4 8 Sur 12 Sudoeste 0 -- -- 100
2019-02-07 07:00:00 9.4 6 Sur 10 Sur 0 -- -- 100
2019-02-07 06:00:00 9.3 3 Sudoeste 9 Sur 0 -- -- 99
2019-02-07 05:00:00 9.9 4 Sudoeste 10 Sudoeste 0 -- -- 98
2019-02-07 04:00:00 9.2 7 Sudoeste 10 Sudoeste 0 -- -- 96
2019-02-07 03:00:00 9.6 4 Sur 12 Sur 0 -- -- 94
2019-02-07 02:00:00 9.7 10 Sur 11 Sur 0 -- -- 92
2019-02-07 01:00:00 9.8 4 Sur 6 Sudeste 0 -- -- 95
2019-02-07 00:00:00 9.9 8 Sur 10 Sur 0 -- -- 93
2019-02-06 23:00:00 9 4 Sudoeste 7 Sudoeste 0 -- -- 90
2019-02-06 22:00:00 9.5 5 Sudoeste 7 Sudoeste 0 -- -- 90
2019-02-06 21:00:00 9 4 Sudoeste 6 Sudoeste 0 -- -- 92
2019-02-06 20:00:00 9.9 4 Sur 5 Sur 0 -- -- 88
2019-02-06 19:00:00 10.9 4 Sudoeste 5 Sudoeste 0 -- -- 86
2019-02-06 18:00:00 13.1 4 Norte 10 Norte 0 -- -- 78
2019-02-06 17:00:00 13.9 8 Norte 18 Norte 0 -- -- 76
2019-02-06 16:00:00 14.3 11 Noroeste 19 Noroeste 0 -- -- 75
2019-02-06 15:00:00 14.2 15 Norte 22 Norte 0 -- -- 77
2019-02-06 14:00:00 14.7 13 Norte 24 Norte 0 -- -- 78
2019-02-06 13:00:00 14.6 16 Norte 24 Norte 0 -- -- 75
2019-02-06 12:00:00 14.8 13 Norte 24 Noroeste 0 -- -- 74
2019-02-06 11:00:00 14 9 Noroeste 21 Oeste 0 -- -- 79
2019-02-06 10:00:00 13.1 3 Norte 12 Noroeste 0 -- -- 90
2019-02-06 09:00:00 11 4 Noroeste 9 Noroeste 0 -- -- 95
2019-02-06 08:00:00 10.2 7 Noroeste 12 Noroeste 0 -- -- 95
2019-02-06 07:00:00 10.4 6 Noroeste 12 Oeste 0 -- -- 96
2019-02-06 06:00:00 10.2 6 Oeste 12 Noroeste 0 -- -- 94
2019-02-06 05:00:00 11.1 8 Noroeste 17 Noroeste 0 -- -- 91
2019-02-06 04:00:00 11.1 9 Noroeste 17 Noroeste 0 -- -- 90
2019-02-06 03:00:00 10.6 8 Noroeste 16 Noroeste 0 -- -- 92
2019-02-06 02:00:00 10.4 6 Norte 15 Norte 0 -- -- 92
2019-02-06 01:00:00 10.8 10 Norte 17 Norte 0 -- -- 90
2019-02-06 00:00:00 11 10 Norte 17 Noroeste 0 -- -- 89
2019-02-05 23:00:00 11.1 9 Norte 20 Noroeste 0 -- -- 87
2019-02-05 22:00:00 11.1 7 Noroeste 15 Noroeste 0 -- -- 85
2019-02-05 21:00:00 11.2 8 Noroeste 19 Noroeste 0 -- -- 84
2019-02-05 20:00:00 11.5 10 Noroeste 19 Noroeste 0 -- -- 83
2019-02-05 19:00:00 11.8 12 Noroeste 24 Norte 0 -- -- 80
2019-02-05 18:00:00 12.1 14 Noroeste 27 Noroeste 0 -- -- 79
2019-02-05 17:00:00 12.6 12 Noroeste 24 Noroeste 0 -- -- 79
2019-02-05 16:00:00 12.3 13 Noroeste 29 Oeste 0 -- -- 76
2019-02-05 15:00:00 12.5 17 Noroeste 31 Oeste 0 -- -- 70
2019-02-05 14:00:00 13.4 20 Noroeste 35 Oeste 0 -- -- 66
2019-02-05 13:00:00 12.8 17 Noroeste 29 Oeste 0 -- -- 66
2019-02-05 12:00:00 12.2 18 Noroeste 28 Noroeste 0 -- -- 73
2019-02-05 11:00:00 11.5 8 Oeste 18 Oeste 0 -- -- 74
2019-02-05 10:00:00 10.5 3 Oeste 11 Oeste 0 -- -- 77
2019-02-05 09:00:00 9.5 6 Oeste 12 Noroeste 0 -- -- 81
2019-02-05 08:00:00 9.4 6 Noroeste 11 Noroeste 0 -- -- 77
2019-02-05 07:00:00 9.4 10 Noroeste 17 Noroeste 0 -- -- 71
2019-02-05 06:00:00 9.1 10 Noroeste 17 Noroeste 0 -- -- 68
2019-02-05 05:00:00 8.7 8 Noroeste 18 Noroeste 0 -- -- 69
2019-02-05 04:00:00 8.7 10 Noroeste 15 Norte 0 -- -- 69
2019-02-05 03:00:00 8 7 Norte 21 Norte 0 -- -- 73
2019-02-05 02:00:00 8.1 14 Norte 20 Norte 0 -- -- 70
2019-02-05 01:00:00 8.4 13 Noroeste 22 Noroeste 0 -- -- 68
2019-02-05 00:00:00 8.3 15 Norte 26 Noroeste 0 -- -- 64
2019-02-04 23:00:00 8.4 16 Noroeste 27 Norte 0 -- -- 65
2019-02-04 22:00:00 8.6 13 Noroeste 26 Norte 0 -- -- 66
2019-02-04 21:00:00 8.4 15 Noroeste 24 Norte 0 -- -- 68
2019-02-04 20:00:00 8.2 15 Norte 22 Noroeste 0 -- -- 73
2019-02-04 19:00:00 8.2 12 Noroeste 19 Noroeste 0 -- -- 74
2019-02-04 18:00:00 8.5 15 Norte 27 Norte 0 -- -- 73
2019-02-04 17:00:00 9.1 20 Norte 35 Noroeste 0 -- -- 69
2019-02-04 16:00:00 9.5 26 Norte 42 Norte 0 -- -- 65
2019-02-04 15:00:00 9.6 27 Norte 45 Norte 0 -- -- 64
2019-02-04 14:00:00 9.5 32 Norte 53 Norte 0 -- -- 59
2019-02-04 13:00:00 9.5 31 Norte 56 Norte 0 -- -- 63
2019-02-04 12:00:00 9.1 37 Norte 59 Norte 0 -- -- 60
2019-02-04 11:00:00 8.8 40 Norte 62 Norte 0 -- -- 58
2019-02-04 10:00:00 8.3 37 Norte 64 Norte 0 -- -- 61
2019-02-04 09:00:00 7.8 33 Norte 63 Norte 0 -- -- 62
2019-02-04 08:00:00 7.4 38 Norte 68 Norte 0 -- -- 62
2019-02-04 07:00:00 7.3 40 Norte 69 Norte 0 -- -- 60
2019-02-04 06:00:00 7.1 39 Norte 73 Norte 0 -- -- 60
2019-02-04 05:00:00 7.2 37 Norte 75 Norte 0 -- -- 62
2019-02-04 04:00:00 7.3 39 Norte 80 Norte 0 -- -- 61
2019-02-04 03:00:00 7.3 48 Norte 80 Norte 0 -- -- 59
2019-02-04 02:00:00 7.6 46 Norte 80 Norte 0 -- -- 53
2019-02-04 01:00:00 7.8 46 Norte 72 Norte 0 -- -- 59
2019-02-04 00:00:00 8 44 Norte 82 Norte 0 -- -- 57
2019-02-03 23:00:00 7.9 38 Norte 65 Norte 0 -- -- 57
2019-02-03 22:00:00 8.1 41 Norte 76 Norte 0 -- -- 57
2019-02-03 21:00:00 8.3 44 Norte 80 Norte 0 -- -- 55
2019-02-03 20:00:00 8.4 41 Norte 76 Norte 0.8 -- -- 59
2019-02-03 19:00:00 7.9 26 Norte 51 Norte 0.6 -- -- 70
2019-02-03 18:00:00 9.5 15 Noroeste 39 Noroeste 0 -- -- 59
2019-02-03 17:00:00 10.1 18 Noroeste 44 Norte 0 -- -- 54
2019-02-03 16:00:00 10.5 26 Noroeste 57 Norte 0 -- -- 46
2019-02-03 15:00:00 10.4 37 Norte 67 Norte 0 -- -- 40
2019-02-03 14:00:00 10.4 43 Norte 76 Norte 0 -- -- 44
2019-02-03 13:00:00 9.9 43 Norte 70 Norte 0 -- -- 46
2019-02-03 12:00:00 9.6 35 Norte 67 Norte 0 -- -- 50
2019-02-03 11:00:00 8.8 33 Norte 71 Norte 0 -- -- 49
2019-02-03 10:00:00 8.1 36 Norte 67 Norte 0 -- -- 55
2019-02-03 09:00:00 8.2 40 Norte 66 Norte 0 -- -- 56
2019-02-03 08:00:00 8.1 35 Norte 69 Norte 0 -- -- 51
2019-02-03 07:00:00 8.3 35 Norte 68 Norte 0 -- -- 57
2019-02-03 06:00:00 8.5 40 Norte 62 Norte 0 -- -- 59
2019-02-03 05:00:00 8.2 32 Norte 51 Norte 0 -- -- 59
2019-02-03 04:00:00 8.7 31 Norte 53 Norte 0 -- -- 58
2019-02-03 03:00:00 8.9 28 Norte 67 Norte 0 -- -- 58
2019-02-03 02:00:00 9.4 34 Norte 67 Norte 0 -- -- 55
2019-02-03 01:00:00 9.5 38 Norte 64 Norte 0 -- -- 56
2019-02-03 00:00:00 8.8 19 Norte 35 Norte 0.4 -- -- 71
2019-02-02 23:00:00 7.3 0 Calma 6 Sudoeste 0 -- -- 84
2019-02-02 22:00:00 7 6 Sudoeste 14 Sudoeste 0 -- -- 85
2019-02-02 21:00:00 6.7 7 Sudoeste 10 Sudoeste 0 -- -- 89
2019-02-02 20:00:00 8.3 4 Oeste 17 Noroeste 0 -- -- 80
2019-02-02 19:00:00 9.1 12 Noroeste 21 Oeste 0 -- -- 75
2019-02-02 18:00:00 9.5 12 Noroeste 32 Noroeste 0 -- -- 75
2019-02-02 17:00:00 10.4 16 Noroeste 32 Norte 0 -- -- 72
2019-02-02 16:00:00 10 10 Noroeste 36 Oeste 0.2 -- -- 83
2019-02-02 15:00:00 8.5 21 Oeste 37 Noroeste 0.4 -- -- 82
2019-02-02 14:00:00 10 25 Oeste 46 Oeste 0 -- -- 76
2019-02-02 13:00:00 10.9 32 Oeste 49 Oeste 0.2 -- -- 68
2019-02-02 12:00:00 10.6 13 Oeste 24 Oeste 0.2 -- -- 81
2019-02-02 11:00:00 8.3 15 Sudoeste 31 Sudoeste 2 -- -- 84
2019-02-02 10:00:00 8.2 10 Sudoeste 17 Sudoeste 0 -- -- 88
2019-02-02 09:00:00 7.7 9 Sudoeste 44 Sudoeste 4.6 -- -- 91
2019-02-02 08:00:00 8.3 19 Sudoeste 32 Sudoeste 1 -- -- 82
2019-02-02 07:00:00 9.3 20 Oeste 34 Oeste 0 -- -- 77
2019-02-02 06:00:00 9.9 12 Sudoeste 23 Oeste 0 -- -- 72
2019-02-02 05:00:00 10.1 15 Sudoeste 31 Sudoeste 0 -- -- 78
2019-02-02 04:00:00 10.5 19 Oeste 42 Oeste 0 -- -- 73
2019-02-02 03:00:00 11.9 24 Sudoeste 44 Sudoeste 0 -- -- 68
2019-02-02 02:00:00 12.1 18 Sudoeste 32 Sudoeste 0 -- -- 86
2019-02-02 01:00:00 12.2 22 Sudoeste 41 Sudoeste 0 -- -- 76
2019-02-02 00:00:00 12.6 30 Sudoeste 52 Sudoeste 0 -- -- 73
2019-02-01 23:00:00 12.1 28 Sudoeste 46 Sudoeste 0 -- -- 74
2019-02-01 22:00:00 12.3 24 Sudoeste 42 Sudoeste 0 -- -- 62
2019-02-01 21:00:00 12 21 Sudoeste 32 Sudoeste 0 -- -- 90
2019-02-01 20:00:00 12.7 20 Sudoeste 41 Sudoeste 0 -- -- 91
2019-02-01 19:00:00 13.4 28 Sudoeste 50 Sudoeste 0 -- -- 79
2019-02-01 18:00:00 13.8 30 Sudoeste 45 Sudoeste 0 -- -- 93
2019-02-01 17:00:00 13.9 32 Sudoeste 53 Sudoeste 0 -- -- 92
2019-02-01 16:00:00 14 39 Sudoeste 62 Sudoeste 0 -- -- 91
2019-02-01 15:00:00 13.7 43 Sudoeste 66 Sudoeste 0 -- -- 90
2019-02-01 14:00:00 13.4 40 Sudoeste 65 Sudoeste 0.4 -- -- 95
2019-02-01 13:00:00 13.2 37 Sudoeste 63 Sudoeste 1 -- -- 96
2019-02-01 12:00:00 13.3 38 Sudoeste 64 Sudoeste 0.6 -- -- 96
2019-02-01 11:00:00 13.4 41 Sudoeste 67 Sudoeste 0.8 -- -- 94
2019-02-01 10:00:00 13.9 34 Sudoeste 57 Sudoeste 0 -- -- 90
2019-02-01 09:00:00 13.8 34 Sudoeste 63 Sudoeste 0 -- -- 90
2019-02-01 08:00:00 13.6 36 Sudoeste 55 Sudoeste 0 -- -- 92
2019-02-01 07:00:00 13.5 31 Sudoeste 55 Sudoeste 0 -- -- 92
2019-02-01 06:00:00 13.5 33 Sudoeste 62 Sudoeste 0 -- -- 93
2019-02-01 05:00:00 13.7 38 Sudoeste 55 Sudoeste 0 -- -- 89
2019-02-01 04:00:00 13.6 33 Sudoeste 50 Sudoeste 0 -- -- 89
2019-02-01 03:00:00 13.5 33 Sudoeste 51 Sudoeste 0 -- -- 93
2019-02-01 02:00:00 13.3 25 Sudoeste 51 Sudoeste 0 -- -- 95
2019-02-01 01:00:00 13.9 35 Sudoeste 49 Sudoeste 0 -- -- 90
2019-02-01 00:00:00 13.4 29 Sudoeste 49 Sudoeste 0 -- -- 95
2019-01-31 23:00:00 13.2 20 Sur 43 Sudoeste 0 -- -- 94
2019-01-31 22:00:00 13.3 29 Sudoeste 44 Sudoeste 0 -- -- 93
2019-01-31 21:00:00 13.6 25 Sudoeste 37 Sudoeste 0 -- -- 87
2019-01-31 20:00:00 14.3 24 Sudoeste 34 Sudoeste 0 -- -- 80
2019-01-31 19:00:00 14.6 25 Sudoeste 37 Sudoeste 0 -- -- 77
2019-01-31 18:00:00 15 16 Sudoeste 31 Sudoeste 0 -- -- 76
2019-01-31 17:00:00 16 23 Sudoeste 37 Sudoeste 0 -- -- 73
2019-01-31 16:00:00 16.1 22 Sudoeste 33 Sudoeste 0 -- -- 75
2019-01-31 15:00:00 16.5 23 Sudoeste 34 Sudoeste 0 -- -- 71
2019-01-31 14:00:00 16 26 Sudoeste 45 Sudoeste 0 -- -- 73
2019-01-31 13:00:00 15.8 27 Sudoeste 44 Sudoeste 0 -- -- 72
2019-01-31 12:00:00 14.8 26 Sudoeste 44 Sudoeste 0 -- -- 73
2019-01-31 11:00:00 14.2 29 Sudoeste 45 Sudoeste 0 -- -- 74
2019-01-31 10:00:00 13.5 31 Sudoeste 49 Sudoeste 0 -- -- 73
2019-01-31 09:00:00 12.4 26 Sudoeste 36 Sudoeste 0 -- -- 78
2019-01-31 08:00:00 12.1 23 Sudoeste 32 Sudoeste 0 -- -- 75
2019-01-31 07:00:00 11.8 18 Sudoeste 32 Sudoeste 0 -- -- 75
2019-01-31 06:00:00 12 24 Sudoeste 41 Sudoeste 0 -- -- 69
2019-01-31 05:00:00 12.1 27 Sudoeste 41 Sudoeste 0 -- -- 65
2019-01-31 04:00:00 12.3 28 Sudoeste 41 Sudoeste 0 -- -- 71
2019-01-31 03:00:00 11.9 25 Sudoeste 37 Sudoeste 0 -- -- 78
2019-01-31 02:00:00 11.5 24 Sudoeste 36 Sudoeste 0 -- -- 73
2019-01-31 01:00:00 10.8 21 Sudoeste 32 Sudoeste 0 -- -- 74
2019-01-31 00:00:00 10.2 21 Sudoeste 31 Sudoeste 0 -- -- 64
2019-01-30 23:00:00 9.4 15 Sudoeste 24 Sudoeste 0 -- -- 63
2019-01-30 22:00:00 8.5 10 Sudoeste 18 Sudoeste 0 -- -- 67
2019-01-30 21:00:00 9.3 13 Sudoeste 31 Oeste 0 -- -- 66
2019-01-30 20:00:00 9.8 18 Sudoeste 32 Oeste 0 -- -- 64
2019-01-30 19:00:00 9.8 16 Sudoeste 31 Oeste 0 -- -- 65
2019-01-30 18:00:00 10.2 24 Oeste 36 Oeste 0 -- -- 63
2019-01-30 17:00:00 10.6 22 Oeste 35 Oeste 0 -- -- 66
2019-01-30 16:00:00 11.3 18 Oeste 37 Oeste 0 -- -- 64
2019-01-30 15:00:00 12 15 Oeste 39 Oeste 0 -- -- 59
2019-01-30 14:00:00 11 18 Sur 23 Sudoeste 0 -- -- 73
2019-01-30 13:00:00 11.1 3 Oeste 13 Norte 0 -- -- 67
2019-01-30 12:00:00 10.9 7 Norte 21 Nordeste 0 -- -- 66
2019-01-30 11:00:00 10.7 12 Norte 19 Nordeste 0 -- -- 68
2019-01-30 10:00:00 8.6 7 Sudeste 33 Norte 0 -- -- 83
2019-01-30 09:00:00 9.7 15 Noroeste 25 Noroeste 0 -- -- 77
2019-01-30 08:00:00 9.7 8 Noroeste 24 Oeste 0 -- -- 76
2019-01-30 07:00:00 9.3 13 Noroeste 30 Noroeste 0 -- -- 73
2019-01-30 06:00:00 10 13 Noroeste 44 Noroeste 0 -- -- 70
2019-01-30 05:00:00 10.3 27 Noroeste 43 Oeste 0 -- -- 70
2019-01-30 04:00:00 10.3 17 Oeste 48 Oeste 0 -- -- 72
2019-01-30 03:00:00 10.5 26 Noroeste 46 Oeste 0 -- -- 67
2019-01-30 02:00:00 10.8 20 Noroeste 41 Oeste 0 -- -- 72
2019-01-30 01:00:00 10.8 18 Oeste 31 Noroeste 0 -- -- 73
2019-01-30 00:00:00 9 13 Sudoeste 20 Sudoeste 0 -- -- 89
2019-01-29 23:00:00 8.9 14 Sudoeste 25 Sudoeste 0 -- -- 84
2019-01-29 22:00:00 8.6 14 Sudoeste 19 Sudoeste 0 -- -- 90
2019-01-29 21:00:00 8.4 9 Sudoeste 21 Sudoeste 0 -- -- 89
2019-01-29 20:00:00 8.7 12 Sudoeste 19 Sudoeste 0.2 -- -- 88
2019-01-29 19:00:00 8.5 12 Sudoeste 22 Sudoeste 0 -- -- 90
2019-01-29 18:00:00 8.2 15 Oeste 30 Oeste 2 -- -- 92
2019-01-29 17:00:00 8.8 12 Sudoeste 28 Sur 1 -- -- 90
2019-01-29 16:00:00 8.7 13 Sur 17 Sur 0 -- -- 88
2019-01-29 15:00:00 8.6 9 Sur 15 Sur 0 -- -- 89
2019-01-29 14:00:00 8.7 7 Oeste 15 Oeste 1 -- -- 89
2019-01-29 13:00:00 9.4 5 Sur 14 Nordeste 0 -- -- 75
2019-01-29 12:00:00 10 8 Norte 20 Nordeste 0 -- -- 73
2019-01-29 11:00:00 9.6 13 Nordeste 22 Nordeste 0.2 -- -- 73
2019-01-29 10:00:00 9.5 14 Norte 27 Norte 0 -- -- 73
2019-01-29 09:00:00 9.3 10 Norte 23 Norte 0 -- -- 72
2019-01-29 08:00:00 8.6 17 Norte 30 Norte 0 -- -- 72
2019-01-29 07:00:00 8.9 22 Norte 37 Norte 0 -- -- 68
2019-01-29 06:00:00 8.5 23 Norte 44 Norte 0 -- -- 68
2019-01-29 05:00:00 8.6 25 Norte 51 Norte 0 -- -- 67
2019-01-29 04:00:00 8.8 27 Norte 48 Norte 0 -- -- 68
2019-01-29 03:00:00 8.9 29 Norte 58 Norte 0 -- -- 67
2019-01-29 02:00:00 9.1 31 Norte 57 Norte 0 -- -- 67
2019-01-29 01:00:00 9.1 28 Norte 54 Norte 0 -- -- 70
2019-01-29 00:00:00 9.2 19 Norte 52 Nordeste 0 -- -- 71
2019-01-28 23:00:00 9.6 27 Norte 44 Norte 0 -- -- 71
2019-01-28 22:00:00 9.9 29 Norte 58 Norte 0 -- -- 63
2019-01-28 21:00:00 10.2 36 Norte 58 Norte 0 -- -- 62
2019-01-28 20:00:00 10.2 35 Norte 54 Norte 0 -- -- 65
2019-01-28 19:00:00 10.2 25 Noroeste 54 Norte 0 -- -- 69
2019-01-28 18:00:00 10.1 19 Noroeste 36 Noroeste 0 -- -- 71
2019-01-28 17:00:00 11.2 27 Noroeste 47 Noroeste 0 -- -- 68
2019-01-28 16:00:00 11.8 32 Noroeste 57 Noroeste 0 -- -- 69
2019-01-28 15:00:00 12.5 39 Oeste 68 Noroeste 0 -- -- 65
2019-01-28 14:00:00 12.3 38 Oeste 74 Oeste 0 -- -- 65
2019-01-28 13:00:00 11.5 31 Oeste 62 Oeste 0 -- -- 68
2019-01-28 12:00:00 11.1 32 Oeste 59 Oeste 0 -- -- 71
2019-01-28 11:00:00 10.9 33 Oeste 50 Oeste 0 -- -- 74
2019-01-28 10:00:00 9.9 23 Oeste 42 Oeste 0 -- -- 77
2019-01-28 09:00:00 8.1 14 Sudoeste 21 Sudoeste 0 -- -- 82
2019-01-28 08:00:00 7.9 13 Sudoeste 18 Sudoeste 0 -- -- 85
2019-01-28 07:00:00 7.2 5 Oeste 10 Oeste 0 -- -- 90
2019-01-28 06:00:00 7.7 6 Oeste 11 Noroeste 0 -- -- 87
2019-01-28 05:00:00 8 9 Noroeste 18 Norte 0 -- -- 83
2019-01-28 04:00:00 8 6 Norte 17 Norte 0 -- -- 84
2019-01-28 03:00:00 7.3 5 Norte 18 Norte 1.4 -- -- 94
2019-01-28 02:00:00 7.6 10 Norte 18 Norte 4 -- -- 94
2019-01-28 01:00:00 8.1 9 Nordeste 27 Nordeste 0.6 -- -- 93
2019-01-28 00:00:00 8.6 9 Nordeste 18 Nordeste 0.2 -- -- 94
2019-01-27 23:00:00 8.6 8 Sudoeste 12 Oeste 2 -- -- 93
2019-01-27 22:00:00 9.6 3 Sur 6 Noroeste 0 -- -- 81
2019-01-27 21:00:00 9.8 6 Nordeste 43 Norte 0 -- -- 79
2019-01-27 20:00:00 11.9 17 Noroeste 36 Noroeste 0 -- -- 77
2019-01-27 19:00:00 12.3 17 Noroeste 37 Oeste 0 -- -- 70
2019-01-27 18:00:00 12.1 22 Oeste 41 Oeste 0 -- -- 70
2019-01-27 17:00:00 13 26 Oeste 46 Oeste 0 -- -- 62
2019-01-27 16:00:00 13.5 31 Noroeste 50 Noroeste 0 -- -- 63
2019-01-27 15:00:00 14.1 25 Oeste 47 Oeste 0 -- -- 68
2019-01-27 14:00:00 14.6 26 Oeste 42 Oeste 0 -- -- 68
2019-01-27 13:00:00 14.5 25 Oeste 36 Noroeste 0 -- -- 76
2019-01-27 12:00:00 13.9 14 Oeste 27 Oeste 0 -- -- 77
2019-01-27 11:00:00 13.8 15 Sudoeste 26 Sudoeste 0 -- -- 85
2019-01-27 10:00:00 12.4 13 Sudoeste 22 Sudoeste 0 -- -- 96
2019-01-27 09:00:00 11 7 Sur 15 Sur 0 -- -- 99
2019-01-27 08:00:00 10.6 11 Sur 24 Sudoeste 0 -- -- 98
2019-01-27 07:00:00 10.7 15 Sudoeste 20 Sudoeste 0 -- -- 98
2019-01-27 06:00:00 10.7 10 Sur 21 Sudoeste 0 -- -- 97
2019-01-27 05:00:00 10.7 14 Sur 21 Sudoeste 0 -- -- 97
2019-01-27 04:00:00 10.8 12 Sur 28 Sudoeste 0 -- -- 95
2019-01-27 03:00:00 11.7 19 Sudoeste 29 Sudoeste 0 -- -- 92
2019-01-27 02:00:00 11.5 16 Sudoeste 27 Sudoeste 0 -- -- 93
2019-01-27 01:00:00 11.6 17 Sudoeste 27 Sudoeste 0 -- -- 93
2019-01-27 00:00:00 11.5 17 Sudoeste 26 Sudoeste 0 -- -- 92
2019-01-26 23:00:00 11.4 17 Sudoeste 26 Sudoeste 0 -- -- 91
2019-01-26 22:00:00 10.8 14 Sudoeste 24 Sudoeste 0 -- -- 91
2019-01-26 21:00:00 9.9 12 Sudoeste 16 Sudoeste 0 -- -- 90
2019-01-26 20:00:00 10.1 12 Sudoeste 17 Sudoeste 0 -- -- 89
2019-01-26 19:00:00 10.7 9 Sudoeste 14 Sudoeste 0 -- -- 86
2019-01-26 18:00:00 12.2 10 Sudoeste 21 Oeste 0 -- -- 81
2019-01-26 17:00:00 13.2 12 Sudoeste 30 Sudoeste 0 -- -- 75
2019-01-26 16:00:00 14.5 19 Sudoeste 30 Oeste 0 -- -- 65
2019-01-26 15:00:00 13.8 6 Norte 21 Norte 0 -- -- 74
2019-01-26 14:00:00 13.5 17 Norte 24 Norte 0 -- -- 71
2019-01-26 13:00:00 13.3 17 Norte 35 Norte 0 -- -- 72
2019-01-26 12:00:00 13.9 17 Noroeste 35 Noroeste 0 -- -- 69
2019-01-26 11:00:00 13.6 25 Noroeste 42 Norte 0 -- -- 72
2019-01-26 10:00:00 13.6 29 Norte 45 Norte 0 -- -- 69
2019-01-26 09:00:00 12.7 28 Norte 44 Norte 0 -- -- 71
2019-01-26 08:00:00 11.6 20 Norte 54 Norte 0 -- -- 79
2019-01-26 07:00:00 12.1 39 Norte 59 Norte 0 -- -- 71
2019-01-26 06:00:00 11.6 32 Norte 59 Norte 0 -- -- 78
2019-01-26 05:00:00 11.5 27 Norte 44 Norte 0 -- -- 80
2019-01-26 04:00:00 11.5 29 Norte 56 Norte 0 -- -- 80
2019-01-26 03:00:00 11.4 37 Norte 66 Norte 0 -- -- 80
2019-01-26 02:00:00 11.3 39 Norte 66 Norte 0 -- -- 74
2019-01-26 01:00:00 11.3 23 Norte 51 Norte 0 -- -- 79
2019-01-26 00:00:00 8.9 6 Noroeste 18 Norte 0 -- -- 86
2019-01-25 23:00:00 8 0 Calma 8 Sudoeste 0 -- -- 84
2019-01-25 22:00:00 8.1 3 Este 13 Sudoeste 0 -- -- 83
2019-01-25 21:00:00 7.7 9 Oeste 12 Sudoeste 0 -- -- 84
2019-01-25 20:00:00 9 3 Oeste 14 Norte 0 -- -- 77
2019-01-25 19:00:00 9.7 10 Noroeste 22 Norte 0 -- -- 76
2019-01-25 18:00:00 9.8 17 Norte 35 Norte 0 -- -- 76
2019-01-25 17:00:00 10.4 24 Norte 48 Norte 0 -- -- 73
2019-01-25 16:00:00 10.5 30 Norte 51 Norte 0 -- -- 73
2019-01-25 15:00:00 10.1 36 Norte 61 Norte 0 -- -- 64
2019-01-25 14:00:00 9.4 30 Norte 55 Norte 0 -- -- 63
2019-01-25 13:00:00 9.3 37 Norte 66 Norte 0 -- -- 62
2019-01-25 12:00:00 9.4 33 Norte 69 Norte 0 -- -- 60
2019-01-25 11:00:00 9.5 47 Norte 79 Noroeste 0 -- -- 58
2019-01-25 10:00:00 9.7 50 Norte 80 Norte 0 -- -- 58
2019-01-25 09:00:00 9.3 53 Norte 84 Norte 0 -- -- 54
2019-01-25 08:00:00 9 48 Norte 71 Noroeste 0 -- -- 49
2019-01-25 07:00:00 8.8 41 Norte 64 Norte 0 -- -- 47
2019-01-25 06:00:00 8.7 39 Norte 70 Norte 0 -- -- 39
2019-01-25 05:00:00 8 38 Norte 76 Norte 0 -- -- 47
2019-01-25 04:00:00 8.1 46 Norte 78 Norte 0 -- -- 44
2019-01-25 03:00:00 8.2 45 Norte 74 Norte 0 -- -- 43
2019-01-25 02:00:00 8.2 45 Norte 72 Norte 0 -- -- 47
2019-01-25 01:00:00 8 44 Norte 67 Norte 0 -- -- 53
2019-01-25 00:00:00 7.6 40 Norte 67 Norte 0 -- -- 59
2019-01-24 23:00:00 7.5 35 Norte 68 Norte 0 -- -- 61
2019-01-24 22:00:00 7.3 35 Norte 69 Norte 0 -- -- 64
2019-01-24 21:00:00 7.6 41 Norte 70 Norte 0 -- -- 63
2019-01-24 20:00:00 7.3 39 Norte 69 Norte 0 -- -- 65
2019-01-24 19:00:00 7.1 44 Norte 69 Norte 0 -- -- 65
2019-01-24 18:00:00 7.1 36 Norte 65 Norte 0 -- -- 68
2019-01-24 17:00:00 7 34 Norte 74 Norte 0 -- -- 70
2019-01-24 16:00:00 7 40 Norte 69 Norte 0 -- -- 69
2019-01-24 15:00:00 7.1 41 Norte 69 Noroeste 0 -- -- 69
2019-01-24 14:00:00 6.9 41 Norte 69 Noroeste 0 -- -- 66
2019-01-24 13:00:00 6.6 40 Norte 74 Norte 0 -- -- 68
2019-01-24 12:00:00 6.5 49 Norte 78 Norte 0 -- -- 65
2019-01-24 11:00:00 6.3 54 Norte 81 Norte 0 -- -- 64
2019-01-24 10:00:00 6.3 49 Norte 89 Norte 0 -- -- 67
2019-01-24 09:00:00 6.1 54 Norte 84 Norte 0 -- -- 63
2019-01-24 08:00:00 5.6 48 Norte 95 Norte 0 -- -- 67
2019-01-24 07:00:00 6.2 57 Norte 89 Norte 0 -- -- 59
2019-01-24 06:00:00 6.8 50 Noroeste 91 Norte 0 -- -- 51
2019-01-24 05:00:00 7.2 47 Norte 80 Noroeste 0 -- -- 48
2019-01-24 04:00:00 7.1 41 Norte 75 Noroeste 0 -- -- 49
2019-01-24 03:00:00 7 49 Norte 83 Noroeste 0 -- -- 51
2019-01-24 02:00:00 7.3 58 Norte 87 Noroeste 0 -- -- 45
2019-01-24 01:00:00 7.4 50 Norte 81 Norte 0 -- -- 52
2019-01-24 00:00:00 7.3 52 Norte 84 Norte 0 -- -- 59